SCP
-0 -0 -0 0 -0 0 0 0 0 0 0 0 0 0 0 0 0 0 -0 -0 1 -0 0 0 0 0 0 0 -0 -0 -0 -0 -0 0 0 0 0 0 1 1 1 1 0 0 0 0 0 0 0
-0 -0 0 -0 0 0 0 0 -0 -0 -0 0 0 0 0 0 0 -0 -0 -0 0 -0 -0 0 0 0 0 0 -0 -0 -0 -0 -0 -0 0 0 0 0 0 0 0 0 0 0 0 0 0 0 0
-0 0 0 0 0 0 -0 -0 0 -0 -0 0 0 0 0 -0 -0 -0 -0 -0 1 0 -0 0 0 0 0 0 0 0 -0 0 0 0 -0 0 0 0 0 0 0 0 0 0 0 0 1 0 0
0 0 0 0 0 0 0 0 0 0 0 0 0 0 -0 -0 -0 -0 -0 0 0 0 0 -0 0 0 0 0 0 0 0 0 0 0 0 0 0 0 0 0 0 0 0 0 0 1 1 1 1
0 0 0 0 0 0 -0 0 0 0 0 -0 -0 -0 -0 -0 -0 -0 0 0 0 0 0 0 0 0 0 0 0 0 1 1 1 1 0 0 0 0 0 0 0 0 0 0 0 1 1 1 1
-0 0 0 0 -0 0 0 -0 0 0 0 0 0 0 -0 -0 -0 0 0 0 0 0 0 0 0 -0 -0 0 0 0 0 1 1 1 1 1 0 0 0 1 1 0 0 0 0 1 1 0 0
0 0 0 0 -0 -0 0 -0 0 0 0 0 0 0 -0 -0 0 -0 0 0 0 0 0 0 0 -0 0 0 0 -0 -0 -0 -0 0 1 1 1 0 1 1 1 0 1 1 1 1 1 1 1
0 0 0 0 0 -0 -0 0 -0 0 0 -0 -0 0 -0 0 0 -0 -0 0 0 0 0 0 0 0 -0 0 0 0 -0 0 0 0 0 0 0 0 1 1 1 1 1 1 1 1 1 1 1
0 0 0 -0 -0 -0 -0 0 0 0 0 0 -0 0 0 0 0 -0 -0 0 0 -0 -0 0 -0 -0 -0 -0 -0 0 0 0 0 0 0 0 0 0 0 0 1 1 1 1 1 1 1 1 1
0 0 0 0 -0 0 0 -0 0 0 0 0 -0 0 0 0 0 0 0 0 0 0 0 0 0 -0 0 -0 0 0 0 0 0 0 0 0 -0 0 0 0 1 2 1 1 1 1 1 1 1
0 0 0 0 -0 0 0 -0 -0 0 0 0 0 0 0 0 0 0 0 0 0 0 0 0 0 0 0 0 0 0 0 0 0 0 0 0 0 0 0 0 0 0 0 0 0 0 0 1 1
0 0 0 0 -0 0 0 0 0 0 -0 0 0 0 0 0 0 0 0 0 0 0 0 0 0 0 0 0 0 0 0 0 0 0 0 0 0 0 0 0 0 0 0 0 0 0 0 0 1
-0 0 -0 0 0 0 0 0 0 0 0 0 0 0 0 0 0 0 0 0 0 0 0 0 0 0 0 -0 -0 -0 -0 -0 -0 0 0 0 0 0 0 0 0 0 0 0 0 0 0 0 0
-0 -0 -0 0 -0 0 -0 0 0 0 0 -0 -0 -0 0 0 0 0 0 0 0 0 0 0 0 0 0 0 0 -0 -0 0 0 0 0 0 0 0 0 0 0 0 0 0 0 0 0 0 0
0 -0 0 0 0 0 0 0 0 0 0 0 -0 0 0 0 0 0 0 0 0 0 0 0 0 0 0 0 0 0 0 0 0 0 0 0 0 0 0 0 0 0 0 0 0 0 0 0 0
-0 -0 -0 0 0 0 0 0 0 0 0 0 0 0 0 0 0 0 0 0 0 0 0 0 0 0 0 0 0 0 0 0 0 -0 -0 0 0 0 0 0 0 0 0 0 0 0 0 0 0
-0 -0 0 0 0 0 0 0 0 0 0 0 0 0 0 0 0 0 0 0 0 0 0 0 0 0 0 0 0 0 0 0 0 0 -0 -0 -0 0 0 0 0 0 0 0 0 0 0 0 0
-0 -0 0 -0 0 0 0 0 0 0 0 0 0 0 0 -0 0 0 0 0 0 0 0 0 0 0 0 0 0 0 0 0 0 0 0 0 -0 -0 -0 0 0 0 0 0 0 0 0 0 0
-0 -0 0 0 0 -0 0 0 0 0 0 0 0 -0 -0 0 -0 0 0 0 0 0 0 0 0 0 0 0 0 0 0 0 0 0 0 0 0 -0 -0 -0 0 0 0 0 0 0 0 0 0
-0 0 0 0 0 -0 0 0 0 0 0 0 0 0 0 0 0 0 0 0 0 0 0 0 0 0 0 0 0 0 0 0 0 0 0 0 0 0 0 0 0 0 0 0 0 0 0 0 0
0 0 -0 0 0 0 0 0 0 0 0 0 0 0 0 0 0 0 0 0 0 0 0 0 0 0 0 0 0 0 0 0 0 0 0 0 0 -0 0 0 0 0 0 0 0 0 0 0 0
0 -0 -0 -0 0 0 0 0 0 0 0 0 0 0 0 0 0 0 0 0 0 0 0 0 0 0 0 0 0 0 0 0 0 0 0 0 0 0 0 0 0 0 0 0 0 0 0 0 0
0 -0 -0 0 0 0 0 0 0 0 0 0 0 0 0 0 0 0 0 0 0 0 0 0 0 0 0 0 0 0 0 0 0 0 0 0 0 0 0 0 0 0 0 0 0 0 0 0 0
-0 0 0 0 0 0 0 0 0 0 0 0 0 0 0 0 0 0 0 0 0 0 0 0 0 0 0 0 0 0 0 0 0 0 0 0 0 0 0 0 0 0 0 0 0 0 0 0 0
0 0 0 0 0 0 0 0 0 0 0 0 0 0 0 0 0 0 0 0 0 0 0 0 0 0 0 0 0 0 0 0 0 0 0 0 0 0 0 0 0 0 0 0 0 0 0 0 0
0 0 0 0 0 0 0 0 0 0 0 0 0 0 0 0 0 0 0 0 0 0 0 0 0 0 0 0 0 0 0 0 0 0 0 0 0 0 0 0 0 0 0 0 0 0 0 0 0
0 0 0 0 0 0 0 0 0 0 0 0 0 0 0 0 0 0 0 0 0 0 0 0 0 0 0 0 0 0 0 0 0 0 0 0 0 0 0 0 0 0 0 0 0 0 0 0 0
0 0 0 0 0 0 0 0 0 0 0 0 0 0 0 0 0 0 0 0 0 0 0 0 0 0 0 0 0 0 0 0 0 0 0 0 0 0 0 0 0 0 0 0 0 0 0 0 0
0 0 0 0 0 0 0 0 0 0 0 0 0 0 0 0 0 0 0 0 0 0 0 0 0 0 0 0 0 0 0 0 0 0 0 0 0 0 0 0 0 0 0 0 0 0 0 0 0
0 0 0 0 0 0 0 0 0 0 0 0 0 0 0 0 0 0 0 0 0 0 0 0 0 0 0 0 0 0 0 0 0 0 0 0 0 0 0 0 0 0 0 0 0 0 0 0 0
Wind_Speed_500mb
1 5 10 6 7 9 7 10 4 21 15 43 46 37 35 30 15 13 10 15 15 12 14 13 11 10 11 14 16 14 15 16 17 19 23 26 27 29 29 27 24 24 26 27 32 39 41 34 25
2 4 6 3 9 8 10 8 14 24 23 45 40 26 40 18 25 17 21 29 16 16 11 12 12 14 17 18 15 15 15 16 18 19 21 21 23 23 22 21 22 23 24 27 33 40 42 37 31
2 4 1 8 5 6 5 18 24 15 27 5 14 31 12 3 15 25 33 15 14 11 10 10 12 13 16 21 22 18 15 13 15 17 20 20 22 23 22 21 22 23 24 27 34 41 42 37 36
3 1 6 7 5 7 4 16 16 5 20 18 36 22 11 19 30 49 32 19 6 12 9 6 7 8 10 12 14 14 14 13 16 19 19 19 20 22 22 22 23 24 26 29 33 40 44 42 39
1 4 8 7 7 8 10 18 34 6 8 12 4 14 11 32 42 45 20 13 7 15 10 6 9 11 14 15 15 14 15 15 18 18 19 20 22 25 27 26 24 24 26 28 32 37 43 47 46
6 6 9 5 12 10 11 40 34 10 24 39 36 19 11 40 25 8 15 7 13 14 8 5 5 7 11 14 12 8 4 5 9 15 19 22 25 27 29 30 31 31 30 31 32 36 41 45 47
8 7 2 4 4 11 9 18 14 3 14 27 25 10 28 29 15 28 13 16 19 14 7 2 3 6 2 2 4 9 14 7 10 13 18 23 27 31 32 34 36 36 36 36 37 39 41 43 44
3 8 6 9 6 4 5 9 8 21 16 6 13 10 11 30 29 24 26 21 20 7 6 4 24 15 3 6 10 12 8 9 15 17 18 22 30 36 38 40 41 40 39 40 41 41 41 44 45
6 9 5 9 14 10 6 8 21 25 30 39 22 28 23 25 8 20 30 18 4 5 6 15 28 9 9 19 29 18 18 24 18 24 30 37 52 50 50 48 46 44 47 45 44 46 46 46 48
9 8 9 6 12 13 19 10 17 17 37 41 54 59 49 45 46 40 37 44 38 34 29 30 31 26 16 19 19 16 11 26 26 29 34 39 42 44 49 54 51 46 49 46 48 50 50 50 53
10 11 14 11 24 41 24 18 11 34 14 22 36 53 55 60 59 60 55 50 50 47 42 44 45 29 21 18 25 24 23 24 26 28 30 22 26 25 37 39 39 36 36 40 45 51 55 51 48
9 36 28 25 39 42 32 39 26 30 25 41 46 50 50 55 60 57 52 44 40 38 34 34 30 23 18 21 30 39 41 39 30 27 30 28 27 23 19 25 29 32 33 35 45 48 51 58 58
4 18 46 46 39 50 59 40 36 42 45 41 45 51 54 50 47 41 42 40 37 40 40 41 39 39 37 38 42 49 50 47 35 33 35 34 32 29 24 25 24 22 19 22 34 50 52 48 52
17 57 46 38 35 46 69 40 15 32 46 54 54 55 52 48 43 40 38 40 36 32 31 30 30 29 28 35 43 46 41 49 48 43 50 44 38 35 31 28 29 28 28 29 29 36 46 58 76
57 24 12 9 12 40 41 15 11 47 42 53 56 48 49 47 40 38 33 33 33 30 24 18 23 25 29 29 48 35 31 50 55 53 51 45 48 49 46 41 37 35 36 31 33 37 41 44 41
13 12 11 8 17 15 8 9 12 35 46 39 50 52 48 39 34 30 28 33 27 24 20 19 23 29 34 29 35 26 31 48 52 57 59 54 51 53 50 49 47 44 41 41 37 39 42 45 47
11 10 7 9 7 2 10 20 12 16 39 35 36 44 43 35 30 28 23 16 10 14 13 20 23 27 27 25 30 32 31 46 50 58 63 63 60 54 49 50 52 51 49 45 42 41 44 42 40
8 11 4 12 7 4 27 23 17 10 21 27 35 39 42 34 25 23 14 10 7 7 6 7 11 14 18 22 29 31 40 51 54 56 58 56 55 52 49 43 41 41 44 47 45 40 37 38 38
11 0 7 1 11 13 18 28 12 4 27 21 25 36 36 23 24 15 10 13 6 4 5 7 9 12 18 26 33 41 49 51 52 50 48 49 51 53 51 47 39 28 27 33 35 41 41 37 33
11 11 4 7 18 11 4 17 11 18 15 9 23 40 32 28 27 17 9 9 10 9 11 9 8 11 21 31 42 44 39 40 43 43 42 46 49 50 50 46 41 37 28 22 25 29 38 39 32
11 16 20 14 14 14 9 10 6 11 14 9 19 35 19 18 16 25 20 28 14 15 9 1 14 25 34 42 42 42 43 45 44 44 45 48 51 53 51 43 36 34 26 23 23 28 27 36 38
5 25 30 34 11 10 3 7 8 6 5 7 19 26 19 23 34 26 31 29 22 17 11 15 25 36 38 40 43 44 44 44 42 47 49 52 50 52 50 40 33 32 27 22 22 20 20 25 32
15 36 35 19 14 13 4 9 4 7 3 7 8 18 30 36 27 39 38 33 24 14 15 24 32 34 34 38 40 43 36 33 37 44 49 53 48 50 43 39 34 34 31 28 30 22 22 13 21
30 16 10 8 8 8 7 7 6 4 11 8 13 11 31 39 48 43 34 23 18 15 20 25 26 25 29 37 45 35 31 34 44 50 55 51 52 48 47 41 38 33 31 30 32 31 22 17 9
14 13 5 5 9 7 5 10 7 12 10 11 23 33 47 48 42 38 29 21 15 14 20 20 20 25 32 39 38 33 34 40 46 48 48 50 55 54 50 41 40 33 31 31 29 28 20 20 18
6 13 11 8 7 4 12 5 6 6 23 42 47 51 50 44 40 31 22 19 18 18 18 17 20 28 34 36 29 30 32 40 45 48 49 50 51 49 47 34 35 31 32 34 33 32 26 21 20
5 8 9 14 6 9 3 0 3 12 25 34 43 50 45 39 29 22 18 15 18 19 20 20 26 30 30 29 29 31 32 39 41 45 51 53 48 42 35 34 29 29 32 32 35 36 39 32 25
11 12 6 7 10 5 7 7 9 15 22 23 29 42 39 31 25 19 13 15 17 17 18 23 29 29 29 30 34 37 39 37 40 44 48 58 57 62 46 30 29 27 34 36 40 40 40 40 35
7 5 14 12 7 10 9 8 13 21 27 26 33 42 41 31 25 19 13 12 15 18 20 26 29 29 32 32 35 36 35 37 39 42 45 53 52 57 53 42 31 31 32 34 37 41 39 42 42
8 8 8 10 5 5 7 7 11 24 37 43 44 40 34 29 22 17 12 12 15 19 24 30 29 32 33 34 38 39 39 38 38 40 45 42 47 49 54 51 43 37 37 36 35 37 39 38 39
Wind_Direction_500mb
288 340 331 359 41 59 297 277 319 101 68 66 87 101 102 50 48 119 37 61 125 203 173 145 149 159 170 173 170 161 149 145 147 151 155 160 166 171 178 187 194 193 198 203 198 194 192 189 183
314 353 358 111 80 29 308 301 51 91 114 107 77 44 53 54 78 98 132 131 161 178 164 156 165 176 175 185 189 188 182 175 171 170 172 175 178 181 184 190 197 203 209 208 202 197 198 200 199
49 352 262 91 109 121 331 62 80 61 53 80 102 51 54 24 137 127 100 109 169 171 151 151 161 170 186 191 193 194 194 197 195 191 191 192 193 196 200 204 207 212 217 217 211 207 206 207 210
124 354 69 83 230 256 195 116 139 153 45 67 104 77 77 137 132 114 92 350 158 142 102 108 138 148 157 174 189 200 202 214 221 222 219 216 213 216 218 216 212 214 218 218 219 218 217 218 218
176 55 49 352 288 310 352 69 123 92 89 121 107 109 96 130 129 137 55 80 136 130 134 133 154 170 169 154 152 173 190 201 204 209 222 230 230 229 229 230 229 224 224 225 222 222 225 227 227
42 49 50 353 338 9 32 63 66 92 137 103 94 101 145 149 137 9 47 25 122 126 130 144 181 201 186 173 167 160 184 209 224 222 231 242 248 248 247 244 241 238 233 232 231 230 228 230 232
105 75 156 329 359 34 26 42 53 298 73 51 131 102 157 152 127 84 103 98 104 110 113 96 276 247 284 358 141 191 194 197 222 239 250 254 260 259 256 254 250 247 244 243 241 239 239 239 239
104 86 28 355 101 171 285 96 49 27 34 73 140 112 151 160 97 86 110 107 118 95 12 228 337 277 74 318 322 292 277 290 301 298 290 292 288 274 261 254 254 252 250 252 252 253 251 249 248
145 60 26 176 147 187 152 100 63 65 56 52 73 101 121 172 228 114 75 112 108 14 24 35 28 97 113 44 354 342 346 346 324 303 293 290 301 294 273 260 252 249 250 248 249 252 253 252 250
115 96 223 207 149 140 109 114 114 87 64 71 82 91 98 101 102 101 97 100 101 89 83 53 72 88 74 45 63 63 31 29 10 340 325 312 312 291 276 269 256 253 259 257 253 252 251 250 249
129 153 139 116 159 138 119 97 105 110 64 92 98 102 100 94 94 95 94 97 95 94 97 83 80 76 62 44 24 22 18 14 15 13 1 345 323 306 290 290 265 264 265 260 257 261 257 254 251
96 134 117 122 147 138 134 132 100 104 127 116 108 112 113 101 101 100 98 92 88 80 78 79 73 63 37 9 4 359 352 353 338 339 336 332 329 324 308 298 295 289 294 280 273 274 262 248 259
111 107 127 129 144 125 114 101 101 105 128 123 113 112 113 118 117 108 101 94 88 74 62 55 46 27 12 1 355 351 348 348 342 333 337 335 336 335 326 319 319 315 307 314 278 270 264 251 243
84 120 110 129 135 115 111 133 117 133 131 126 123 119 122 120 121 117 110 100 93 81 65 51 35 16 13 7 5 357 356 0 344 341 330 325 330 333 329 322 313 310 308 304 298 286 280 259 244
121 99 99 164 152 115 86 29 90 146 144 132 131 130 123 124 124 115 116 112 102 83 65 44 22 16 11 8 4 355 355 347 340 330 329 321 317 315 310 309 307 303 298 295 288 289 292 280 267
102 82 140 222 221 184 108 106 117 141 145 137 135 135 132 132 121 117 120 116 98 64 46 35 22 358 1 2 358 344 331 328 331 324 321 323 320 315 307 301 296 291 288 285 280 282 282 279 273
21 170 161 178 1 108 82 144 142 131 156 143 145 144 137 131 125 120 112 103 84 50 23 3 353 4 353 347 339 327 309 319 316 313 315 320 323 323 316 307 300 293 282 276 276 271 275 272 272
167 100 220 173 214 107 101 91 93 73 148 144 156 158 148 141 144 138 117 145 116 82 38 333 342 333 318 311 315 311 313 318 316 315 319 326 332 332 329 325 317 308 291 279 267 273 267 273 277
105 170 154 245 30 71 91 97 63 80 123 140 175 179 163 154 149 127 141 162 138 185 236 214 252 279 297 314 321 319 322 323 323 327 328 330 334 338 340 338 339 332 312 300 284 269 273 267 273
153 117 87 37 19 85 178 103 135 113 103 82 176 184 169 169 172 171 135 175 218 221 210 217 269 317 333 330 328 331 333 332 331 333 337 339 340 339 340 343 345 352 346 322 312 289 278 275 270
204 166 184 152 108 57 131 29 97 83 97 73 132 174 156 162 133 124 155 196 194 182 168 344 345 336 331 333 337 336 333 335 338 342 339 345 343 339 339 340 341 345 355 348 331 328 293 285 269
256 178 157 146 128 153 80 180 334 10 146 84 108 124 119 123 126 132 142 139 137 113 60 1 341 335 343 350 345 346 345 345 348 343 343 337 338 340 344 350 356 357 353 347 326 326 311 275 280
211 152 160 144 93 103 329 77 294 348 121 193 155 120 115 122 137 133 129 121 100 68 20 356 350 354 357 353 353 346 348 349 344 342 347 350 351 347 355 7 6 4 1 3 356 334 329 336 262
129 105 62 42 92 58 291 136 287 220 219 171 174 150 131 128 124 122 117 106 85 48 14 0 4 5 2 2 358 358 359 352 345 345 347 354 349 0 7 9 11 5 7 13 2 354 360 350 339
73 63 29 25 47 173 275 69 232 293 217 172 157 131 133 132 127 120 114 100 82 39 15 12 8 8 7 6 12 9 3 357 353 356 6 5 0 2 2 4 8 11 11 17 12 359 358 9 14
79 134 148 188 156 213 6 54 285 341 76 110 119 130 136 127 123 116 105 86 55 22 26 29 19 12 3 5 19 15 9 14 14 18 12 8 0 358 354 1 4 4 14 21 20 18 19 19 16
187 68 156 108 56 79 173 152 20 96 99 98 113 129 131 129 124 116 103 63 37 36 38 31 17 5 10 27 23 16 21 23 21 15 16 7 1 357 356 3 8 12 15 14 13 14 18 20 14
125 154 77 31 130 123 219 200 195 172 136 136 128 128 133 132 137 128 90 57 39 39 39 26 11 23 38 37 31 30 29 26 20 22 20 19 24 24 24 24 23 23 27 24 25 26 32 34 31
32 64 60 107 100 147 159 250 187 170 161 145 140 140 146 143 136 128 98 59 57 45 30 18 25 38 37 40 35 29 27 24 25 24 23 27 29 28 28 27 24 22 22 27 25 25 31 33 33
95 92 99 116 206 71 120 263 343 135 144 144 150 151 149 145 143 133 107 83 55 37 25 22 37 51 49 48 46 40 33 25 21 23 24 25 30 30 32 32 36 42 43 37 31 30 29 26 25
Wind_Speed_850mb
1 5 10 6 7 9 7 10 4 21 15 43 46 37 35 30 15 13 10 15 15 12 14 13 11 10 11 14 16 14 15 16 17 19 23 26 27 29 29 27 24 24 26 27 32 39 41 34 25
2 4 6 3 9 8 10 8 14 24 23 45 40 26 40 18 25 17 21 29 16 16 11 12 12 14 17 18 15 15 15 16 18 19 21 21 23 23 22 21 22 23 24 27 33 40 42 37 31
2 4 1 8 5 6 5 18 24 15 27 5 14 31 12 3 15 25 33 15 14 11 10 10 12 13 16 21 22 18 15 13 15 17 20 20 22 23 22 21 22 23 24 27 34 41 42 37 36
3 1 6 7 5 7 4 16 16 5 20 18 36 22 11 19 30 49 32 19 6 12 9 6 7 8 10 12 14 14 14 13 16 19 19 19 20 22 22 22 23 24 26 29 33 40 44 42 39
1 4 8 7 7 8 10 18 34 6 8 12 4 14 11 32 42 45 20 13 7 15 10 6 9 11 14 15 15 14 15 15 18 18 19 20 22 25 27 26 24 24 26 28 32 37 43 47 46
6 6 9 5 12 10 11 40 34 10 24 39 36 19 11 40 25 8 15 7 13 14 8 5 5 7 11 14 12 8 4 5 9 15 19 22 25 27 29 30 31 31 30 31 32 36 41 45 47
8 7 2 4 4 11 9 18 14 3 14 27 25 10 28 29 15 28 13 16 19 14 7 2 3 6 2 2 4 9 14 7 10 13 18 23 27 31 32 34 36 36 36 36 37 39 41 43 44
3 8 6 9 6 4 5 9 8 21 16 6 13 10 11 30 29 24 26 21 20 7 6 4 24 15 3 6 10 12 8 9 15 17 18 22 30 36 38 40 41 40 39 40 41 41 41 44 45
6 9 5 9 14 10 6 8 21 25 30 39 22 28 23 25 8 20 30 18 4 5 6 15 28 9 9 19 29 18 18 24 18 24 30 37 52 50 50 48 46 44 47 45 44 46 46 46 48
9 8 9 6 12 13 19 10 17 17 37 41 54 59 49 45 46 40 37 44 38 34 29 30 31 26 16 19 19 16 11 26 26 29 34 39 42 44 49 54 51 46 49 46 48 50 50 50 53
10 11 14 11 24 41 24 18 11 34 14 22 36 53 55 60 59 60 55 50 50 47 42 44 45 29 21 18 25 24 23 24 26 28 30 22 26 25 37 39 39 36 36 40 45 51 55 51 48
9 36 28 25 39 42 32 39 26 30 25 41 46 50 50 55 60 57 52 44 40 38 34 34 30 23 18 21 30 39 41 39 30 27 30 28 27 23 19 25 29 32 33 35 45 48 51 58 58
4 18 46 46 39 50 59 40 36 42 45 41 45 51 54 50 47 41 42 40 37 40 40 41 39 39 37 38 42 49 50 47 35 33 35 34 32 29 24 25 24 22 19 22 34 50 52 48 52
17 57 46 38 35 46 69 40 15 32 46 54 54 55 52 48 43 40 38 40 36 32 31 30 30 29 28 35 43 46 41 49 48 43 50 44 38 35 31 28 29 28 28 29 29 36 46 58 76
57 24 12 9 12 40 41 15 11 47 42 53 56 48 49 47 40 38 33 33 33 30 24 18 23 25 29 29 48 35 31 50 55 53 51 45 48 49 46 41 37 35 36 31 33 37 41 44 41
13 12 11 8 17 15 8 9 12 35 46 39 50 52 48 39 34 30 28 33 27 24 20 19 23 29 34 29 35 26 31 48 52 57 59 54 51 53 50 49 47 44 41 41 37 39 42 45 47
11 10 7 9 7 2 10 20 12 16 39 35 36 44 43 35 30 28 23 16 10 14 13 20 23 27 27 25 30 32 31 46 50 58 63 63 60 54 49 50 52 51 49 45 42 41 44 42 40
8 11 4 12 7 4 27 23 17 10 21 27 35 39 42 34 25 23 14 10 7 7 6 7 11 14 18 22 29 31 40 51 54 56 58 56 55 52 49 43 41 41 44 47 45 40 37 38 38
11 0 7 1 11 13 18 28 12 4 27 21 25 36 36 23 24 15 10 13 6 4 5 7 9 12 18 26 33 41 49 51 52 50 48 49 51 53 51 47 39 28 27 33 35 41 41 37 33
11 11 4 7 18 11 4 17 11 18 15 9 23 40 32 28 27 17 9 9 10 9 11 9 8 11 21 31 42 44 39 40 43 43 42 46 49 50 50 46 41 37 28 22 25 29 38 39 32
11 16 20 14 14 14 9 10 6 11 14 9 19 35 19 18 16 25 20 28 14 15 9 1 14 25 34 42 42 42 43 45 44 44 45 48 51 53 51 43 36 34 26 23 23 28 27 36 38
5 25 30 34 11 10 3 7 8 6 5 7 19 26 19 23 34 26 31 29 22 17 11 15 25 36 38 40 43 44 44 44 42 47 49 52 50 52 50 40 33 32 27 22 22 20 20 25 32
15 36 35 19 14 13 4 9 4 7 3 7 8 18 30 36 27 39 38 33 24 14 15 24 32 34 34 38 40 43 36 33 37 44 49 53 48 50 43 39 34 34 31 28 30 22 22 13 21
30 16 10 8 8 8 7 7 6 4 11 8 13 11 31 39 48 43 34 23 18 15 20 25 26 25 29 37 45 35 31 34 44 50 55 51 52 48 47 41 38 33 31 30 32 31 22 17 9
14 13 5 5 9 7 5 10 7 12 10 11 23 33 47 48 42 38 29 21 15 14 20 20 20 25 32 39 38 33 34 40 46 48 48 50 55 54 50 41 40 33 31 31 29 28 20 20 18
6 13 11 8 7 4 12 5 6 6 23 42 47 51 50 44 40 31 22 19 18 18 18 17 20 28 34 36 29 30 32 40 45 48 49 50 51 49 47 34 35 31 32 34 33 32 26 21 20
5 8 9 14 6 9 3 0 3 12 25 34 43 50 45 39 29 22 18 15 18 19 20 20 26 30 30 29 29 31 32 39 41 45 51 53 48 42 35 34 29 29 32 32 35 36 39 32 25
11 12 6 7 10 5 7 7 9 15 22 23 29 42 39 31 25 19 13 15 17 17 18 23 29 29 29 30 34 37 39 37 40 44 48 58 57 62 46 30 29 27 34 36 40 40 40 40 35
7 5 14 12 7 10 9 8 13 21 27 26 33 42 41 31 25 19 13 12 15 18 20 26 29 29 32 32 35 36 35 37 39 42 45 53 52 57 53 42 31 31 32 34 37 41 39 42 42
8 8 8 10 5 5 7 7 11 24 37 43 44 40 34 29 22 17 12 12 15 19 24 30 29 32 33 34 38 39 39 38 38 40 45 42 47 49 54 51 43 37 37 36 35 37 39 38 39
Wind_Direction_850mb
288 340 331 359 41 59 297 277 319 101 68 66 87 101 102 50 48 119 37 61 125 203 173 145 149 159 170 173 170 161 149 145 147 151 155 160 166 171 178 187 194 193 198 203 198 194 192 189 183
314 353 358 111 80 29 308 301 51 91 114 107 77 44 53 54 78 98 132 131 161 178 164 156 165 176 175 185 189 188 182 175 171 170 172 175 178 181 184 190 197 203 209 208 202 197 198 200 199
49 352 262 91 109 121 331 62 80 61 53 80 102 51 54 24 137 127 100 109 169 171 151 151 161 170 186 191 193 194 194 197 195 191 191 192 193 196 200 204 207 212 217 217 211 207 206 207 210
124 354 69 83 230 256 195 116 139 153 45 67 104 77 77 137 132 114 92 350 158 142 102 108 138 148 157 174 189 200 202 214 221 222 219 216 213 216 218 216 212 214 218 218 219 218 217 218 218
176 55 49 352 288 310 352 69 123 92 89 121 107 109 96 130 129 137 55 80 136 130 134 133 154 170 169 154 152 173 190 201 204 209 222 230 230 229 229 230 229 224 224 225 222 222 225 227 227
42 49 50 353 338 9 32 63 66 92 137 103 94 101 145 149 137 9 47 25 122 126 130 144 181 201 186 173 167 160 184 209 224 222 231 242 248 248 247 244 241 238 233 232 231 230 228 230 232
105 75 156 329 359 34 26 42 53 298 73 51 131 102 157 152 127 84 103 98 104 110 113 96 276 247 284 358 141 191 194 197 222 239 250 254 260 259 256 254 250 247 244 243 241 239 239 239 239
104 86 28 355 101 171 285 96 49 27 34 73 140 112 151 160 97 86 110 107 118 95 12 228 337 277 74 318 322 292 277 290 301 298 290 292 288 274 261 254 254 252 250 252 252 253 251 249 248
145 60 26 176 147 187 152 100 63 65 56 52 73 101 121 172 228 114 75 112 108 14 24 35 28 97 113 44 354 342 346 346 324 303 293 290 301 294 273 260 252 249 250 248 249 252 253 252 250
115 96 223 207 149 140 109 114 114 87 64 71 82 91 98 101 102 101 97 100 101 89 83 53 72 88 74 45 63 63 31 29 10 340 325 312 312 291 276 269 256 253 259 257 253 252 251 250 249
129 153 139 116 159 138 119 97 105 110 64 92 98 102 100 94 94 95 94 97 95 94 97 83 80 76 62 44 24 22 18 14 15 13 1 345 323 306 290 290 265 264 265 260 257 261 257 254 251
96 134 117 122 147 138 134 132 100 104 127 116 108 112 113 101 101 100 98 92 88 80 78 79 73 63 37 9 4 359 352 353 338 339 336 332 329 324 308 298 295 289 294 280 273 274 262 248 259
111 107 127 129 144 125 114 101 101 105 128 123 113 112 113 118 117 108 101 94 88 74 62 55 46 27 12 1 355 351 348 348 342 333 337 335 336 335 326 319 319 315 307 314 278 270 264 251 243
84 120 110 129 135 115 111 133 117 133 131 126 123 119 122 120 121 117 110 100 93 81 65 51 35 16 13 7 5 357 356 0 344 341 330 325 330 333 329 322 313 310 308 304 298 286 280 259 244
121 99 99 164 152 115 86 29 90 146 144 132 131 130 123 124 124 115 116 112 102 83 65 44 22 16 11 8 4 355 355 347 340 330 329 321 317 315 310 309 307 303 298 295 288 289 292 280 267
102 82 140 222 221 184 108 106 117 141 145 137 135 135 132 132 121 117 120 116 98 64 46 35 22 358 1 2 358 344 331 328 331 324 321 323 320 315 307 301 296 291 288 285 280 282 282 279 273
21 170 161 178 1 108 82 144 142 131 156 143 145 144 137 131 125 120 112 103 84 50 23 3 353 4 353 347 339 327 309 319 316 313 315 320 323 323 316 307 300 293 282 276 276 271 275 272 272
167 100 220 173 214 107 101 91 93 73 148 144 156 158 148 141 144 138 117 145 116 82 38 333 342 333 318 311 315 311 313 318 316 315 319 326 332 332 329 325 317 308 291 279 267 273 267 273 277
105 170 154 245 30 71 91 97 63 80 123 140 175 179 163 154 149 127 141 162 138 185 236 214 252 279 297 314 321 319 322 323 323 327 328 330 334 338 340 338 339 332 312 300 284 269 273 267 273
153 117 87 37 19 85 178 103 135 113 103 82 176 184 169 169 172 171 135 175 218 221 210 217 269 317 333 330 328 331 333 332 331 333 337 339 340 339 340 343 345 352 346 322 312 289 278 275 270
204 166 184 152 108 57 131 29 97 83 97 73 132 174 156 162 133 124 155 196 194 182 168 344 345 336 331 333 337 336 333 335 338 342 339 345 343 339 339 340 341 345 355 348 331 328 293 285 269
256 178 157 146 128 153 80 180 334 10 146 84 108 124 119 123 126 132 142 139 137 113 60 1 341 335 343 350 345 346 345 345 348 343 343 337 338 340 344 350 356 357 353 347 326 326 311 275 280
211 152 160 144 93 103 329 77 294 348 121 193 155 120 115 122 137 133 129 121 100 68 20 356 350 354 357 353 353 346 348 349 344 342 347 350 351 347 355 7 6 4 1 3 356 334 329 336 262
129 105 62 42 92 58 291 136 287 220 219 171 174 150 131 128 124 122 117 106 85 48 14 0 4 5 2 2 358 358 359 352 345 345 347 354 349 0 7 9 11 5 7 13 2 354 360 350 339
73 63 29 25 47 173 275 69 232 293 217 172 157 131 133 132 127 120 114 100 82 39 15 12 8 8 7 6 12 9 3 357 353 356 6 5 0 2 2 4 8 11 11 17 12 359 358 9 14
79 134 148 188 156 213 6 54 285 341 76 110 119 130 136 127 123 116 105 86 55 22 26 29 19 12 3 5 19 15 9 14 14 18 12 8 0 358 354 1 4 4 14 21 20 18 19 19 16
187 68 156 108 56 79 173 152 20 96 99 98 113 129 131 129 124 116 103 63 37 36 38 31 17 5 10 27 23 16 21 23 21 15 16 7 1 357 356 3 8 12 15 14 13 14 18 20 14
125 154 77 31 130 123 219 200 195 172 136 136 128 128 133 132 137 128 90 57 39 39 39 26 11 23 38 37 31 30 29 26 20 22 20 19 24 24 24 24 23 23 27 24 25 26 32 34 31
32 64 60 107 100 147 159 250 187 170 161 145 140 140 146 143 136 128 98 59 57 45 30 18 25 38 37 40 35 29 27 24 25 24 23 27 29 28 28 27 24 22 22 27 25 25 31 33 33
95 92 99 116 206 71 120 263 343 135 144 144 150 151 149 145 143 133 107 83 55 37 25 22 37 51 49 48 46 40 33 25 21 23 24 25 30 30 32 32 36 42 43 37 31 30 29 26 25